Regional Weather Roundup
Issued by NWS

Home | Current Version | Previous Version | Graphics & Text | Print | Product List | Glossary On
Versions: 1 2 3 4 5 6 7 8 9 10 11 12 13 14 15 16 17 18 19 20 21 22 23 24 25 26 27 28 29 30 31 32 33 34 35 36 37 38 39 40 41 42 43 44 45 46 47 48 49 50
000
ASUS45 KPSR 011100
RWRAZ

ARIZONA HOURLY REGIONAL WEATHER ROUNDUP
NATIONAL WEATHER SERVICE PHOENIX AZ
400 AM MST TUE SEP 01 2015

NOTE: FAIR INDICATES FEW OR NO CLOUDS BELOW 12,000 FEET WITH NO
SIGNIFICANT WEATHER AND/OR OBSTRUCTIONS TO VISIBILITY.

AZZ001>003-036-011200-
NORTHWEST ARIZONA

CITY           SKY/WX    TMP DP  RH WIND       PRES   REMARKS
BULLHEAD CITY  CLEAR     88  46  23 SW10      29.81R
KINGMAN        CLEAR     75  49  39 SE10      30.00R
$$

AZZ004>008-015-016-018-011200-
NORTH CENTRAL ARIZONA

CITY           SKY/WX    TMP DP  RH WIND       PRES   REMARKS
GRAND CANYON   PTCLDY    58  51  78 S5          N/A
WILLIAMS       CLOUDY    57  52  82 SE13      30.32R
PRESCOTT       CLEAR     63  58  83 SE7       30.16S
FLAGSTAFF      NOT AVBL
PAYSON         PTCLDY    61  59  94 CALM      30.19F
PAGE           PTCLDY    71  53  52 S9        30.08S
$$

AZZ009>014-017-011200-
NORTHEAST ARIZONA

CITY           SKY/WX    TMP DP  RH WIND       PRES   REMARKS
WINSLOW        CLEAR     63  56  78 SE6       30.15F
SAINT JOHNS    CLOUDY    61  54  77 NW10      30.21R
WINDOW ROCK    CLOUDY    55  50  83 SW5       30.27S
$$

AZZ023-011200-
GREATER PHOENIX AREA

CITY           SKY/WX    TMP DP  RH WIND       PRES   REMARKS
PHOENIX          N/A    N/A N/A N/A MISG      29.90S
LUKE AFB       CLEAR     80  68  66 W5        29.90F
DEER VALLEY    CLEAR     79  64  60 CALM      29.92F
SCOTTSDALE     PTCLDY    78  65  63 CALM      29.94S
$$

AZZ027-028-011200-
SOUTHWEST MARICOPA COUNTY AND PINAL COUNTY

CITY           SKY/WX    TMP DP  RH WIND       PRES   REMARKS
CASA GRANDE    MOCLDY    75  66  73 CALM      29.91F
GILA BEND      FAIR      86  62  44 SE16G23   29.85F
$$

AZZ503-504-507>509-011200-
SOUTHEAST ARIZONA

CITY           SKY/WX    TMP DP  RH WIND       PRES   REMARKS
TUCSON         MOCLDY    74  63  68 E7        30.03F
DAVIS-MONTHAN  PTCLDY    73  65  75 E10       30.00F
NOGALES        MOCLDY    65  61  87 S3        30.10S
SIERRA VISTA   MOCLDY    65  59  81 E2        30.18S
DOUGLAS        MOCLDY    62  59  90 NW6       30.13S
SAFFORD        CLOUDY    68  66  93 CALM      30.04F
$$

AZZ020-021-025-026-031-011200-
SOUTHWEST ARIZONA

CITY           SKY/WX    TMP DP  RH WIND       PRES   REMARKS
YUMA           NOT AVBL
$$

CAZ031-033-041-043-047-048-061-011200-
SOUTHERN CALIFORNIA

CITY           SKY/WX    TMP DP  RH WIND       PRES   REMARKS
DOWNTOWN L.A.  CLOUDY    71  60  68 VRB3      29.90R
L.A. AIRPORT   MOCLDY    70  60  70 SE7       29.90S
SAN DIEGO      CLOUDY    71  60  68 S7        29.92S
BURBANK        CLOUDY    70  62  76 S5        29.91R
ONTARIO        MOCLDY    67  60  78 VRB3      29.92S
RIVERSIDE      CLOUDY    67  61  81 CALM      29.92S
PALM SPRINGS   CLEAR     79  47  32 SW5       29.79S
EL CENTRO NAS  PTCLDY    82  38  20 SE6       29.77R
IMPERIAL       CLEAR     88  35  15 CALM      29.75R
BLYTHE         CLEAR     85  64  49 S5        29.80S
$$

NVZ020-UTZ003-011200-
SOUTHERN NEVADA-UTAH

CITY           SKY/WX    TMP DP  RH WIND       PRES   REMARKS
LAS VEGAS      CLEAR     83  41  22 S5        29.81S
SALT LAKE CITY MOCLDY    74  47  38 SE15      29.95S
$$

NMZ009-TXZ055-011200-
NEW MEXICO-WEST TEXAS

CITY           SKY/WX    TMP DP  RH WIND       PRES   REMARKS
ALBUQUERQUE    PTCLDY    68  48  48 S5        30.16R
EL PASO        PTCLDY    75  47  36 E3        30.02F
$$


........................KEY........................
SKY/WX - SKY CONDITION/WEATHER
TMP    - TEMPERATURE IN FAHRENHEIT
DP     - DEW POINT IN FAHRENHEIT
RH     - RELATIVE HUMIDITY IN PERCENT
WIND   - DIRECTION AND SPEED IN MILES PER HOUR (MPH)
VRB    - VARIABLE WIND DIRECTION
PRES   - MEAN SEA LEVEL PRESSURE IN INCHES OF MERCURY
         F - FALLING PRESSURE   R - RISING PRESSURE
         S - STEADY PRESSURE
VSB    - VISIBILITY IN MILES
HX     - HEAT INDEX IN FAHRENHEIT
WCI    - WIND CHILL INDEX IN FAHRENHEIT
TC     - TEMPERATURE IN CELSIUS WHICH IS ALSO KNOWN AS
         TEMPERATURE IN CENTIGRADE
AFB    - AIR FORCE BASE
         LUKE AFB IS LUKE AIR FORCE BASE
         DAVIS-MONTHAN IS DAVIS-MONTHAN AIR FORCE BASE
NAS    - NAVAL AIR STATION
         EL CENTRO NAS IS EL CENTRO NAVAL AIR STATION
N/A    - NOT AVAILABLE



USA.gov is the U.S. government's official web portal to all federal, state and local government web resources and services.